Showing default

SUPERVIEW NEO-2 02, 53130

Orbit data source: Space-Track

SUPERVIEW NEO-2 02, 53130 is a payload satellite owned by Siwei (CN) in SSO that was launched on Fri, 15 Jul 2022 UTC via a CHANG ZHENG 2C launch vehicle from the Taiyaun Space Center, China (TSC). Payload-class satellites include a variety of spacecraft equipped with specific instruments for various scientific and technological missions. These include communications satellites like Starlink; space stations such as the ISS; scientific satellites like the Hubble; Earth observation satellites from companies like Planet Labs, Umbra, and HawkEye 360; GPS; miniature CubeSats for education and research; and military/defense satellites.

Loading next visibility...
Identifier
53130, 2022-082C
Orbit
SSO
Country
Flag of CNCN / PRC
Related business
Manufacturer
DFH
Mission
Operational Commercial Radar Imaging
Bus & Motor
SIWEI, Unknown motor
Mass
600 kg wet, ~500 kg dry
Launch date (UTC)
2022-07-15 (4 years ago)
Launch vehicle
CHANG ZHENG 2C
Launch site
Taiyaun Space Center, China (TSC)
Object type
Payload
Rocket body
Debris
Shape & HBR
Box, 0.3 m
Radar Cross Section
0.375 m², Large (>1 m²)

Expand to show TLE details & history
Last TLE update: 2 days ago

TLE from 2 days ago
0 SUPERVIEW NEO-2 02
1 53130U 22082C   26171.14562491  .00000927  00000-0  40591-4 0  9996
2 53130  97.3939 181.1191 0001682  89.0807 271.0623 15.24506744218667
Epoch: 2026-06-20T03:29Z
TLE epoch observation values (Epoch: 2026-06-20T03:29:41.992Z)
Latitude
-0.00004°
Longitude
-139.67031°
Altitude
495.343 km
Speed
7.617 km/s
True Right ascension
12h 04m 28s
True Declination
0° 00' 00"
Sunlit
Object was in daylight at epoch
Visualization orbit readout
Latitude
Unknown
Longitude
Unknown
Altitude
Unknown
Speed
Unknown
Apparent Right ascension
Unknown
Apparent Declination
Unknown
Sunlit
N/A
Visualization observer readout
Local Sidereal Time
21:32:28
Azimuth
Unknown
Elevation
Unknown
Doppler factor
Unknown
Orbital elements
Apogee altitude
490.381 km
Perigee altitude
488.071 km
Semi-major axis
6,867.363 km
Eccentricity
0.00017
Inclination
97.3939°
RAAN
181.1191°
Arg. of periapsis
89.0807°
True anomaly
271.04303°
Mean anomaly
271.0623°
Eccentric anomaly
271.05266°
Mean motion
3.8138 °/min
Orbital period
94.39 mins
BSTAR
0.000040591
Loading maneuver chart data...
Computing Atmospheric mass density...
Loading historical data...
Loading historical data...
Loading historical data...
Loading historical data...
Loading historical data...
Loading historical data...
Loading historical data...

Documentation

Showing up to 5 results
|